Wind_Speed
3 3 3 2 2 1 1 2 2 3 4 4 5 5 6 6 6 6 7 8 9 9 9 10 10 11 11 11 12 12 12 12 13 13 13 13 13 13 13 12 12 12 12 12 13 13 14 14 15
3 4 3 3 3 2 2 2 2 3 4 5 5 6 6 7 7 7 8 9 10 10 11 11 12 12 12 12 13 13 13 13 13 13 13 12 12 12 12 12 12 12 12 12 13 13 14 14 15
3 3 3 3 2 2 2 3 3 4 5 5 6 7 7 8 8 9 9 10 11 11 12 12 13 13 13 13 14 14 14 14 13 13 13 13 13 13 13 13 12 12 13 13 13 13 14 14 15
2 3 3 3 3 3 4 4 4 5 6 7 7 8 9 9 9 10 10 11 12 12 13 13 14 14 14 14 14 14 14 14 13 13 13 13 13 13 13 13 13 13 13 14 14 14 15 15 15
2 2 2 3 3 4 4 5 6 7 8 8 9 10 11 11 10 11 11 12 12 13 13 14 14 14 15 15 15 15 15 14 14 14 14 14 14 14 14 14 14 14 14 14 14 15 15 16 16
3 3 3 4 5 5 5 6 7 8 9 10 10 11 12 13 12 13 13 14 14 14 14 14 15 15 15 16 16 16 16 15 15 15 15 15 15 15 15 15 15 15 15 15 15 16 16 16 17
5 5 5 6 6 7 8 8 9 10 11 11 11 12 13 13 13 14 15 15 15 15 15 15 16 16 16 17 17 17 17 17 17 16 16 16 16 16 16 16 16 16 16 16 16 17 17 17 17
7 8 8 8 9 10 10 11 11 12 12 12 12 12 13 14 14 15 16 16 16 16 16 16 16 17 18 18 19 19 18 18 18 18 18 18 18 18 18 18 18 18 18 18 19 19 19 19 19
10 10 11 10 10 12 13 13 14 13 13 13 13 13 14 15 15 16 17 17 17 17 17 17 18 18 19 19 20 20 20 20 20 20 20 20 20 20 20 21 21 21 21 21 21 22 22 22 22
12 13 13 13 12 13 15 15 16 15 15 15 15 15 15 16 17 17 18 18 18 18 18 19 19 20 20 21 21 22 22 22 23 23 23 23 23 23 24 24 24 24 25 25 25 25 26 26 26
14 15 15 15 15 14 16 17 17 17 16 16 16 16 17 17 18 18 18 19 19 19 20 21 21 21 22 23 23 24 24 25 25 26 26 26 27 27 27 28 28 28 29 29 29 29 30 30 30
16 17 17 18 17 17 17 18 18 18 16 16 16 17 18 18 19 19 19 19 19 21 22 22 22 23 24 24 25 26 27 28 28 29 29 30 30 31 31 32 32 32 33 33 34 34 34 34 34
17 18 18 18 18 18 19 20 19 18 18 18 18 18 19 19 19 19 20 20 20 21 22 23 24 24 25 26 27 29 30 30 31 31 32 33 33 34 35 35 36 36 37 37 38 38 38 38 39
17 18 18 18 18 18 19 20 19 18 18 19 19 19 20 20 21 21 20 20 21 22 23 24 24 25 26 27 28 30 31 32 33 34 34 35 36 37 37 38 39 40 41 41 41 42 42 42 43
16 17 18 18 18 18 19 20 19 19 19 19 20 20 21 21 21 22 21 21 21 22 23 24 25 26 27 28 29 30 32 33 34 35 36 37 38 39 40 41 42 43 44 44 44 45 46 46 47
17 17 18 19 18 18 19 20 21 20 20 20 20 20 21 21 21 22 22 22 22 22 23 24 24 26 27 28 29 31 32 33 34 36 37 38 40 41 42 43 44 45 46 46 47 48 48 49 50
17 17 18 19 18 18 18 19 21 20 20 20 20 21 21 21 21 21 22 22 22 22 23 23 24 25 26 27 29 30 32 33 35 36 38 39 40 42 43 44 45 47 48 48 49 50 51 52 52
16 17 18 19 18 17 17 17 19 19 19 20 20 21 21 21 21 22 22 22 22 23 23 24 24 25 27 28 29 30 32 34 36 37 39 40 42 43 44 45 46 48 49 50 51 52 53 54 55
16 16 17 18 16 16 16 16 17 18 18 19 20 20 21 21 21 22 22 23 23 23 24 25 26 27 28 29 30 32 33 35 36 38 40 42 43 45 46 47 48 50 51 52 53 54 55 56 57
16 16 16 17 17 16 16 16 17 18 18 19 20 20 21 21 22 23 23 23 24 24 25 26 26 28 29 30 32 33 34 36 38 39 41 43 44 46 47 49 50 51 53 54 55 57 58 58 60
16 15 16 17 18 17 16 16 17 18 19 20 20 21 22 22 23 23 24 24 25 26 26 27 28 29 30 31 32 33 35 36 38 40 42 44 46 47 49 51 52 54 55 56 57 59 60 61 62
16 16 16 17 17 17 17 17 17 18 19 20 21 22 23 23 24 24 25 25 26 27 28 29 29 30 31 32 34 35 36 37 39 41 43 45 47 49 51 52 54 56 57 58 60 61 63 64 65
17 18 18 18 18 18 18 18 18 19 20 21 22 23 24 24 24 25 26 26 27 28 28 29 30 32 33 35 36 38 39 41 42 44 46 48 50 52 54 55 57 59 60 61 63 64 66 67 68
19 19 19 19 19 19 19 20 20 20 21 22 23 24 25 25 25 26 27 28 29 30 31 32 33 35 37 38 40 41 43 45 46 48 50 52 54 56 58 60 61 63 64 65 67 68 69 70 71
20 20 21 20 20 20 20 21 22 21 22 23 24 25 25 26 26 27 29 30 31 32 33 35 36 38 40 41 43 45 47 48 50 52 54 55 57 59 62 64 66 68 69 71 72 73 74 75 75
21 21 22 23 23 21 22 22 23 24 25 25 26 26 27 27 28 29 31 32 33 34 36 38 39 40 42 44 46 48 51 52 54 57 59 61 63 65 68 70 71 73 74 75 76 77 77 78 78
22 23 24 25 25 24 22 22 24 26 27 27 27 28 28 29 30 31 33 34 36 38 40 41 43 44 46 49 51 53 56 58 60 63 65 68 70 72 74 75 76 77 78 79 79 80 80 81 81
24 25 25 26 28 27 25 23 25 27 28 28 28 29 30 31 32 34 36 38 39 42 44 46 48 50 52 54 56 58 61 63 66 69 71 73 75 77 78 79 80 81 81 82 82 82 82 83 83
26 26 27 28 29 31 29 26 27 28 29 30 30 31 32 34 36 38 39 42 44 46 49 51 53 55 58 60 62 64 67 69 72 74 76 78 79 81 81 82 83 83 83 84 84 84 83 83 83
27 27 29 30 31 32 32 29 29 30 31 32 33 34 35 37 39 41 44 46 48 51 53 56 58 60 63 65 67 69 72 75 77 79 81 82 83 84 84 85 85 85 85 84 84 83 82 81 81
Wind_Direction
10 12 13 15 10 353 325 300 277 262 250 244 242 240 242 248 252 258 261 264 262 260 259 258 257 257 257 257 258 260 260 261 263 263 264 265 266 267 267 267 267 267 265 264 264 263 263 262 262
25 28 27 28 25 10 347 325 287 271 266 263 257 253 254 257 259 262 264 265 265 264 263 261 261 261 261 261 262 263 264 264 264 264 263 264 264 266 267 267 267 267 267 266 266 266 265 265 265
25 33 35 28 17 354 337 326 306 288 277 271 268 267 266 265 265 267 268 269 268 268 266 264 264 264 263 262 263 265 265 265 264 263 263 264 265 267 267 267 268 268 268 268 268 268 268 268 269
9 24 23 13 356 345 334 320 303 291 284 279 277 277 276 274 272 272 272 272 272 271 269 267 265 265 264 264 265 265 264 264 264 264 265 266 267 267 267 267 268 269 269 270 270 271 271 272 272
336 348 354 349 338 337 327 315 304 296 290 286 283 281 281 281 280 279 277 276 274 272 270 268 266 264 263 263 264 264 264 264 265 265 266 266 267 267 267 267 268 269 270 270 271 272 273 274 274
298 307 312 315 318 318 313 310 302 295 291 289 287 284 283 285 285 283 281 279 277 275 272 270 268 266 263 263 263 263 264 264 264 265 265 265 266 266 267 267 268 269 270 271 272 273 274 276 277
283 289 294 301 305 307 308 309 303 298 295 294 291 286 286 288 288 284 281 280 278 277 274 271 269 267 265 264 263 263 263 264 264 264 264 264 264 265 266 267 267 268 269 271 272 273 275 276 277
277 282 286 293 298 302 306 307 305 305 302 300 297 293 290 290 289 285 283 281 280 278 275 272 269 268 267 265 264 263 263 264 264 264 264 264 264 265 265 266 267 268 269 270 271 273 274 275 277
273 279 283 289 294 299 303 304 304 307 306 303 301 298 294 291 288 284 282 281 280 277 274 272 269 268 267 266 265 263 263 263 264 264 264 264 265 265 265 266 266 267 268 269 270 271 272 274 276
272 277 283 287 292 297 300 301 302 304 304 303 300 297 294 290 288 286 283 281 279 277 274 272 270 269 268 267 266 265 264 264 264 264 265 265 265 265 266 266 267 267 268 269 270 271 272 273 275
272 276 282 286 291 295 297 300 302 303 302 300 298 296 293 290 288 286 285 283 280 278 275 272 271 271 270 269 268 267 266 265 265 265 265 266 266 266 266 267 267 268 268 269 270 271 272 273 274
273 277 281 285 290 293 295 297 301 301 300 297 294 291 289 288 288 287 285 284 281 278 276 275 274 273 272 271 269 268 268 267 266 267 267 267 267 267 268 268 268 269 269 270 271 272 272 273 274
276 278 281 284 288 291 293 295 298 298 297 294 292 289 287 287 287 287 286 284 282 279 278 278 277 276 275 273 271 270 269 269 269 269 269 269 269 269 270 270 270 270 271 271 272 272 273 273 274
279 281 284 286 288 290 292 294 297 297 296 294 293 292 290 289 288 288 287 285 283 281 280 280 279 278 277 275 274 273 273 273 273 272 272 272 272 272 271 272 272 272 272 273 273 273 273 274 274
281 283 285 288 289 290 293 294 296 298 298 296 295 294 293 292 290 289 288 287 286 284 282 281 280 279 278 277 276 276 276 276 275 275 275 274 274 274 274 274 274 274 274 274 274 274 274 275 275
282 284 286 289 291 292 294 295 296 297 297 296 296 295 294 293 292 291 290 289 287 286 284 283 282 282 281 280 280 280 279 279 278 277 277 277 276 276 276 276 276 276 276 276 276 276 276 276 276
284 285 287 290 293 295 295 293 294 294 293 294 294 294 293 293 293 292 291 290 289 288 286 285 284 283 282 282 282 282 281 281 280 280 279 279 279 278 278 278 278 278 278 278 278 277 277 276 277
286 287 288 291 295 296 294 292 291 291 291 291 291 292 293 294 294 295 294 293 291 290 288 287 286 285 284 284 283 283 283 283 282 282 282 282 281 281 281 280 280 280 280 280 279 278 278 278 277
288 290 291 293 296 295 293 291 290 290 290 289 290 291 292 294 295 296 295 295 294 292 291 290 289 288 287 286 286 286 285 285 285 284 284 284 284 283 283 282 282 281 281 280 280 280 279 279 278
290 292 293 294 296 295 294 293 291 290 289 290 291 292 294 296 297 297 297 296 296 295 294 293 292 292 291 290 289 289 287 287 286 285 285 285 285 285 285 284 284 283 282 282 281 281 280 279 279
289 291 292 294 296 298 298 295 292 290 290 290 291 293 295 296 297 297 297 297 298 298 297 297 296 295 294 293 292 291 290 288 287 287 286 286 286 285 285 285 284 284 283 282 282 281 281 280 280
289 292 293 294 296 298 299 296 293 292 291 291 292 294 295 295 296 297 297 298 299 299 298 298 297 297 297 296 295 293 292 291 290 289 289 288 288 287 286 286 285 285 284 284 283 282 282 281 280
288 291 293 293 296 298 299 297 295 294 292 292 293 294 294 295 296 297 298 298 298 298 298 298 298 298 297 297 296 295 294 293 292 291 291 290 289 289 288 287 286 285 285 284 283 282 281 281 281
288 290 291 292 295 297 298 297 297 296 294 293 294 294 294 296 297 298 298 297 297 297 298 298 298 298 298 298 297 297 296 295 294 293 292 291 290 290 289 288 287 286 285 284 283 282 282 281 280
288 291 292 292 294 297 297 296 297 296 294 294 294 294 295 297 298 298 297 297 298 298 299 300 300 300 300 300 299 299 298 297 296 294 293 292 291 290 289 288 288 287 286 284 283 282 281 280 279
288 290 291 293 295 296 296 296 297 297 296 295 295 295 297 298 298 297 297 298 299 300 301 302 302 301 301 301 301 300 299 298 297 296 295 294 293 291 290 289 288 287 286 285 283 283 282 280 279
287 288 290 292 293 295 295 295 295 295 295 295 295 296 298 298 297 297 298 300 301 302 303 303 302 302 302 302 301 300 300 299 298 297 296 295 294 293 291 290 289 287 286 284 283 282 281 280 279
287 289 290 291 294 296 296 296 295 295 294 293 294 296 297 297 297 298 300 302 303 303 304 304 304 303 303 302 302 301 300 300 299 298 297 296 295 293 292 290 289 288 287 286 284 283 281 280 279
288 288 289 291 294 297 298 298 297 295 293 293 294 296 297 297 299 301 303 304 304 305 305 305 305 305 304 304 303 303 302 301 300 299 298 297 296 294 293 291 290 289 288 287 285 284 282 280 278
286 287 289 292 294 296 298 301 298 295 293 294 295 297 297 298 300 302 304 305 305 306 306 306 306 305 305 304 304 303 302 302 301 300 299 298 297 295 294 293 292 291 289 288 286 285 283 281 280
Height
5856 5856 5857 5857 5858 5858 5857 5858 5858 5858 5858 5858 5858 5858 5858 5859 5859 5862 5860 5858 5859 5859 5859 5859 5859 5859 5859 5860 5860 5860 5860 5860 5860 5860 5860 5860 5860 5860 5860 5861 5861 5862 5862 5862 5863 5863 5863 5864 5864
5857 5857 5858 5858 5858 5858 5858 5857 5857 5857 5858 5857 5857 5857 5857 5857 5857 5857 5857 5857 5857 5857 5857 5857 5857 5857 5857 5857 5858 5858 5858 5858 5858 5858 5858 5858 5858 5858 5858 5858 5858 5859 5859 5859 5859 5860 5860 5860 5861
5857 5857 5858 5858 5858 5858 5858 5857 5857 5857 5857 5857 5856 5856 5856 5856 5856 5856 5856 5855 5855 5855 5855 5855 5855 5855 5855 5855 5855 5855 5855 5855 5855 5855 5855 5855 5855 5855 5855 5855 5855 5856 5856 5856 5856 5857 5857 5857 5857
5858 5858 5859 5859 5858 5858 5857 5857 5857 5857 5856 5856 5856 5855 5854 5854 5854 5854 5853 5853 5853 5853 5853 5852 5852 5852 5852 5853 5853 5852 5852 5852 5852 5852 5852 5852 5852 5852 5852 5852 5852 5852 5853 5853 5853 5853 5853 5853 5854
5858 5858 5859 5858 5858 5857 5857 5857 5856 5856 5856 5855 5855 5854 5853 5853 5852 5851 5851 5851 5850 5850 5850 5850 5850 5850 5850 5850 5850 5850 5850 5850 5850 5850 5849 5849 5849 5849 5849 5849 5849 5849 5849 5849 5850 5850 5850 5849 5850
5859 5858 5859 5858 5857 5857 5856 5856 5855 5855 5854 5854 5853 5852 5851 5851 5850 5849 5849 5848 5848 5848 5848 5847 5847 5847 5847 5847 5847 5847 5847 5847 5847 5847 5846 5846 5846 5846 5846 5846 5846 5846 5846 5846 5846 5846 5846 5845 5845
5859 5858 5858 5857 5856 5856 5855 5854 5854 5853 5853 5852 5851 5851 5850 5849 5848 5847 5846 5845 5845 5845 5845 5845 5845 5844 5844 5844 5844 5844 5844 5844 5843 5843 5843 5843 5843 5843 5843 5842 5842 5842 5842 5842 5842 5842 5842 5841 5841
5857 5858 5856 5856 5855 5855 5854 5853 5852 5852 5851 5850 5849 5848 5848 5847 5845 5844 5843 5842 5842 5842 5842 5841 5841 5841 5841 5841 5841 5841 5840 5840 5840 5840 5839 5839 5839 5839 5839 5839 5839 5838 5838 5838 5838 5838 5837 5837 5837
5856 5857 5855 5855 5854 5853 5852 5851 5850 5850 5849 5848 5847 5846 5845 5844 5842 5841 5840 5839 5839 5838 5838 5838 5838 5838 5837 5837 5837 5837 5837 5836 5836 5836 5836 5835 5835 5835 5835 5834 5834 5834 5834 5833 5833 5833 5832 5832 5832
5854 5854 5853 5853 5852 5851 5850 5849 5848 5847 5846 5845 5844 5843 5842 5840 5839 5838 5837 5836 5835 5835 5835 5834 5834 5834 5834 5833 5833 5833 5832 5832 5832 5831 5831 5831 5830 5830 5830 5829 5829 5829 5828 5828 5828 5827 5827 5827 5826
5851 5851 5851 5850 5849 5849 5848 5846 5845 5844 5844 5843 5842 5840 5839 5837 5836 5835 5834 5833 5832 5831 5830 5830 5830 5830 5829 5829 5829 5828 5828 5827 5827 5826 5826 5825 5825 5825 5824 5824 5823 5823 5823 5822 5822 5821 5821 5820 5820
5849 5848 5848 5847 5846 5846 5845 5844 5842 5841 5841 5839 5838 5836 5835 5834 5832 5831 5830 5829 5828 5827 5826 5826 5826 5825 5825 5824 5824 5823 5822 5822 5821 5821 5820 5820 5819 5819 5818 5818 5817 5817 5816 5815 5815 5814 5814 5813 5812
5846 5845 5845 5844 5843 5842 5841 5840 5839 5838 5837 5836 5834 5833 5831 5830 5829 5827 5826 5825 5824 5823 5822 5821 5821 5820 5820 5819 5818 5818 5817 5816 5816 5815 5814 5813 5813 5812 5811 5811 5810 5809 5808 5808 5807 5806 5806 5805 5804
5843 5842 5842 5841 5840 5839 5838 5837 5836 5835 5834 5832 5830 5829 5827 5826 5825 5823 5822 5821 5820 5819 5818 5816 5816 5815 5814 5813 5812 5811 5811 5810 5809 5808 5807 5806 5805 5804 5803 5803 5802 5801 5800 5799 5799 5798 5797 5796 5795
5840 5840 5839 5838 5837 5836 5835 5834 5832 5831 5829 5828 5826 5825 5823 5822 5820 5819 5818 5817 5816 5814 5813 5812 5811 5810 5809 5808 5807 5805 5804 5803 5802 5801 5800 5799 5798 5796 5795 5794 5793 5791 5790 5790 5789 5788 5787 5786 5785
5837 5837 5836 5835 5834 5833 5833 5831 5828 5827 5825 5824 5822 5821 5819 5818 5816 5815 5813 5812 5811 5810 5808 5807 5806 5804 5803 5802 5801 5799 5798 5797 5795 5794 5792 5791 5789 5788 5786 5785 5784 5782 5781 5780 5779 5778 5776 5775 5773
5834 5834 5832 5831 5831 5829 5828 5827 5825 5823 5822 5820 5818 5817 5815 5814 5812 5811 5809 5808 5806 5805 5803 5802 5800 5799 5797 5796 5795 5793 5791 5790 5788 5786 5784 5782 5781 5779 5777 5776 5774 5772 5770 5769 5768 5766 5765 5763 5761
5832 5830 5829 5828 5827 5826 5825 5823 5821 5820 5818 5816 5815 5813 5811 5810 5808 5806 5805 5803 5801 5800 5798 5797 5795 5793 5792 5790 5788 5787 5785 5782 5780 5778 5776 5774 5772 5769 5768 5766 5764 5761 5759 5758 5756 5754 5752 5751 5748
5828 5827 5825 5824 5824 5823 5822 5820 5818 5816 5815 5813 5811 5809 5808 5806 5804 5802 5800 5798 5797 5795 5793 5791 5790 5788 5786 5784 5782 5780 5778 5775 5773 5770 5768 5765 5762 5760 5757 5755 5753 5750 5748 5746 5743 5741 5739 5737 5734
5825 5824 5822 5821 5820 5820 5819 5817 5815 5813 5811 5809 5807 5806 5804 5802 5800 5798 5796 5794 5792 5790 5788 5786 5784 5782 5779 5777 5775 5773 5770 5767 5764 5761 5759 5756 5753 5750 5747 5744 5741 5738 5736 5733 5730 5727 5724 5722 5719
5821 5821 5819 5818 5817 5816 5815 5814 5812 5810 5807 5806 5804 5802 5800 5798 5796 5794 5791 5789 5787 5784 5782 5780 5778 5775 5773 5770 5768 5765 5762 5759 5756 5753 5750 5746 5743 5739 5736 5733 5729 5726 5723 5720 5716 5712 5709 5707 5704
5818 5817 5816 5815 5814 5813 5812 5811 5808 5806 5804 5802 5800 5798 5796 5794 5791 5789 5787 5784 5782 5779 5776 5774 5771 5768 5766 5763 5760 5757 5754 5751 5748 5744 5740 5736 5732 5729 5725 5721 5717 5713 5709 5706 5702 5698 5694 5690 5688
5815 5814 5813 5811 5810 5809 5807 5806 5805 5802 5800 5798 5795 5793 5791 5789 5786 5784 5781 5779 5776 5773 5770 5768 5765 5762 5759 5756 5753 5749 5746 5742 5739 5734 5730 5726 5721 5717 5712 5708 5703 5699 5695 5691 5686 5681 5677 5673 5670
5811 5810 5809 5808 5807 5806 5804 5802 5800 5798 5795 5793 5791 5788 5786 5784 5781 5778 5776 5773 5770 5767 5764 5761 5758 5755 5751 5747 5744 5740 5736 5732 5728 5723 5719 5714 5709 5704 5698 5693 5688 5683 5678 5674 5669 5664 5659 5655 5651
5807 5807 5805 5804 5803 5802 5799 5797 5796 5793 5790 5788 5785 5783 5780 5778 5775 5772 5769 5766 5763 5760 5757 5754 5750 5747 5743 5738 5734 5729 5725 5720 5716 5711 5706 5701 5695 5689 5683 5677 5671 5666 5660 5655 5649 5644 5640 5635 5631
5803 5802 5801 5800 5798 5797 5795 5792 5791 5787 5784 5782 5780 5777 5775 5772 5769 5766 5762 5759 5756 5753 5749 5746 5742 5737 5733 5728 5723 5718 5713 5708 5702 5696 5691 5685 5679 5673 5666 5659 5653 5647 5640 5634 5628 5623 5618 5613 5608
5798 5797 5796 5794 5792 5792 5790 5788 5785 5782 5779 5776 5774 5771 5768 5765 5762 5758 5755 5752 5748 5744 5740 5736 5732 5727 5722 5717 5712 5706 5700 5693 5687 5681 5674 5667 5661 5654 5647 5639 5632 5625 5618 5612 5605 5600 5595 5589 5585
5793 5792 5791 5788 5786 5785 5785 5783 5780 5776 5773 5770 5768 5765 5762 5758 5754 5751 5747 5743 5739 5735 5730 5725 5720 5715 5710 5704 5698 5691 5685 5678 5670 5663 5656 5648 5640 5632 5625 5617 5609 5602 5595 5587 5581 5576 5570 5565 5561
5788 5787 5784 5782 5781 5778 5777 5779 5774 5770 5766 5764 5761 5758 5754 5750 5746 5743 5738 5734 5729 5724 5719 5714 5708 5702 5696 5689 5682 5675 5668 5660 5652 5643 5635 5626 5618 5609 5601 5592 5585 5577 5570 5562 5555 5549 5544 5538 5535
5782 5781 5779 5777 5774 5771 5769 5773 5766 5762 5759 5756 5753 5750 5746 5742 5738 5733 5729 5724 5719 5713 5707 5701 5694 5688 5681 5673 5666 5658 5649 5641 5632 5622 5613 5603 5594 5584 5575 5567 5559 5551 5543 5536 5528 5522 5517 5512 5508